Location: Gad�tanya
(48.0500°N, 20.8500°E)
Time: 22:14:09
(UTC+00:00)

Cosmos 1745 Rocket - Pass Details

Date: 05 July 2020
Orbit: 954 x 997 km, 83.0° (Epoch: 05 August)

Event Time Altitude Azimuth Distance (km) Brightness Sun altitude
Rises 19:38:59 0° 192° (SSW) 3,635 6.6 -8.3°
Reaches altitude 10° 19:41:29 10° 195° (SSW) 2,698 6.0 -8.6°
Maximum altitude 19:47:39 75° 280° (W) 1,012 4.3 -9.3°
Drops below altitude 10° 19:53:58 10° 6° (N) 2,747 7.1 -9.9°
Sets 19:56:31 0° 8° (N) 3,705 7.7 -10.2°
